GW4212 Weather Reports


Display with metric or nautical units.
time (UTC)temp
F
wind
direction
speed
MPH
gust
MPH
rain 1hr
in
rain 24hr
in
rain mn
in
humidity
%
barometer
mb
20260507141714 67 0.0 0.0 0.00 0.00 0.00 99 1011.1
20260507140658 67 0.0 0.0 0.00 0.00 0.00 99 1011.1
20260507135646 67 0.0 0.0 0.00 0.00 0.00 99 1011.3
20260507134636 68 0.0 0.0 0.00 0.00 0.00 99 1011.2
20260507133624 68 0.0 0.0 0.00 0.00 0.00 99 1011.3
20260507132613 68 0.0 0.0 0.00 0.00 0.00 99 1011.4
20260507131608 68 0.0 0.0 0.00 0.00 0.00 99 1011.6
20260507130551 69 0.0 0.0 0.00 0.00 0.00 99 1011.7
20260507125540 69 0.0 0.0 0.00 0.00 0.00 99 1011.8
20260507124512 68 0.0 0.0 0.00 0.00 0.00 99 1011.9
20260507123501 69 0.0 0.0 0.00 0.00 0.00 99 1012.0
20260507122449 68 0.0 0.0 0.00 0.00 0.00 99 1012.1
20260507121443 68 0.0 0.0 0.00 0.00 0.00 99 1012.3
20260507120426 68 0.0 0.0 0.00 0.00 0.00 99 1012.4
20260507115416 71 0.0 0.0 0.00 0.00 0.00 99 1012.3
20260507114404 70 0.0 0.0 0.00 0.00 0.00 99 1012.5
20260507113352 69 0.0 0.0 0.00 0.00 0.00 99 1012.6
20260507112324 70 0.0 0.0 0.00 0.00 0.00 99 1012.6
20260507111318 70 0.0 0.0 0.00 0.00 0.00 99 1012.6
20260507110302 70 0.0 0.0 0.00 0.00 0.00 99 1012.6
20260507105250 71 0.0 0.0 0.00 0.00 0.00 99 1012.7
20260507104222 70 0.0 0.0 0.00 0.00 0.00 99 1012.8
20260507103211 70 0.0 0.0 0.00 0.00 0.00 99 1012.9
20260507102159 70 0.0 0.0 0.00 0.00 0.00 99 1012.8
20260507101153 71 0.0 0.0 0.00 0.00 0.00 99 1012.8
20260507100137 71 0.0 0.0 0.00 0.00 0.00 99 1012.8
20260507095126 71 0.0 0.0 0.00 0.00 0.00 99 1013.0
20260507094114 72 0.0 0.0 0.00 0.00 0.00 99 1013.1
20260507093102 71 0.0 0.0 0.00 0.00 0.00 99 1013.2
20260507092051 72 0.0 0.0 0.00 0.00 0.00 99 1013.0
20260507091046 73 0.0 0.0 0.00 0.00 0.00 99 1012.9
20260507090030 73 0.0 0.0 0.00 0.00 0.00 99 1012.9
20260507085018 72 0.0 0.0 0.00 0.00 0.00 99 1013.1
20260507084007 71 0.0 0.0 0.00 0.00 0.00 99 1013.2
20260507082956 72 0.0 0.0 0.00 0.00 0.00 99 1013.0
20260507081945 73 0.0 0.0 0.00 0.00 0.00 99 1012.7
20260507080939 74 0.0 0.0 0.00 0.00 0.00 99 1012.7
20260507075921 72 0.0 0.0 0.00 0.00 0.00 99 1012.7
20260507074910 74 0.0 0.0 0.00 0.00 0.00 99 1012.6
20260507073842 76 0.0 0.0 0.00 0.00 0.00 99 1012.8
20260507072831 80 0.0 0.0 0.00 0.00 0.00 99 1012.5
20260507071802 83 0.0 0.0 0.00 0.00 0.00 97 1012.2
20260507070757 81 0.0 0.0 0.00 0.00 0.00 99 1012.4
20260507065740 82 0.0 0.0 0.00 0.00 0.00 99 1012.4
20260507064729 83 0.0 0.0 0.00 0.00 0.00 99 1012.5
20260507063717 78 0.0 0.0 0.00 0.00 0.00 99 1012.5
20260507062706 77 0.0 0.0 0.00 0.00 0.00 99 1012.6
20260507061654 68 0.0 0.0 0.00 0.00 0.00 99 1012.7
20260507060631 65 0.0 0.0 0.00 0.00 0.00 99 1012.6
20260507055616 67 0.0 0.0 0.00 0.00 0.00 99 1012.6
20260507054605 77 0.0 0.0 0.00 0.00 0.00 99 1012.3
20260507053554 69 0.0 0.0 0.00 0.00 0.00 99 1012.2
20260507052543 63 0.0 0.0 0.00 0.00 0.00 99 1012.2
20260507051514 62 0.0 0.0 0.00 0.00 0.00 99 1012.2
20260507050508 61 0.0 0.0 0.00 0.00 0.00 99 1012.2
20260507045452 62 0.0 0.0 0.00 0.00 0.00 99 1012.1
20260507044441 61 0.0 0.0 0.00 0.00 0.00 99 1012.0
20260507043222 62 0.0 0.0 0.00 0.00 0.00 99 1011.9
20260507042211 61 0.0 0.0 0.00 0.00 0.00 99 1011.8
20260507040958 61 0.0 0.0 0.00 0.00 0.00 99 1011.8
20260507035952 61 0.0 0.0 0.00 0.00 0.00 99 1011.8
20260507034935 61 0.0 0.0 0.00 0.00 0.00 99 1011.9
20260507033923 61 0.0 0.0 0.00 0.00 0.00 99 1012.0
20260507032912 62 0.0 0.0 0.00 0.00 0.00 99 1012.1
20260507031901 61 0.0 0.0 0.00 0.00 0.00 99 1012.2
20260507030850 62 0.0 0.0 0.00 0.00 0.00 99 1012.2
20260507025854 61 0.0 0.0 0.00 0.00 0.00 99 1012.3
20260507021437 62 0.0 0.0 0.00 0.00 0.00 99 1012.4
20260507020427 62 0.0 0.0 0.00 0.00 0.00 99 1012.4
20260507015405 62 0.0 0.0 0.00 0.00 0.00 99 1012.4
20260507014348 62 0.0 0.0 0.00 0.00 0.00 99 1012.3
20260507013335 62 0.0 0.0 0.00 0.00 0.00 99 1012.4
20260507012325 62 0.0 0.0 0.00 0.00 0.00 99 1012.3
20260507011207 62 0.0 0.0 0.00 0.00 0.00 99 1012.3
20260507010156 61 0.0 0.0 0.00 0.00 0.00 99 1012.4
20260507005043 62 0.0 0.0 0.00 0.00 0.00 99 1012.5
20260507004027 62 0.0 0.0 0.00 0.00 0.00 99 1012.5
20260507003016 63 0.0 0.0 0.00 0.00 0.00 99 1012.6
20260507002005 62 0.0 0.0 0.00 0.00 0.00 99 1012.5
20260507000953 63 0.0 0.0 0.00 0.00 0.00 99 1012.7
20260506235942 63 0.0 0.0 0.00 0.00 0.00 99 1012.8
20260506234937 63 0.0 0.0 0.00 0.00 0.00 99 1013.0
20260506233920 63 0.0 0.0 0.00 0.00 0.00 99 1013.1
20260506232852 62 0.0 0.0 0.00 0.00 0.00 99 1013.0
20260506231840 63 0.0 0.0 0.00 0.00 0.00 99 1012.9
20260506230829 63 0.0 0.0 0.00 0.00 0.00 99 1013.0
20260506225718 63 0.0 0.0 0.00 0.00 0.00 99 1013.1
20260506224712 63 0.0 0.0 0.00 0.00 0.00 99 1013.2
20260506223654 63 0.0 0.0 0.00 0.00 0.00 99 1013.2
20260506222643 63 0.0 0.0 0.00 0.00 0.00 99 1013.2
20260506221631 63 0.0 0.0 0.00 0.00 0.00 99 1013.3
20260506220620 62 0.0 0.0 0.00 0.00 0.00 99 1013.2
20260506215608 63 0.0 0.0 0.00 0.00 0.00 99 1013.3
20260506214603 63 0.0 0.0 0.00 0.00 0.00 99 1013.4
20260506213546 63 0.0 0.0 0.00 0.00 0.00 99 1013.3
20260506212535 63 0.0 0.0 0.00 0.00 0.00 99 1013.2
20260506211417 63 0.0 0.0 0.00 0.00 0.00 99 1013.2
20260506210305 63 0.0 0.0 0.00 0.00 0.00 99 1013.1
20260506205254 63 0.0 0.0 0.00 0.00 0.00 99 1013.0
20260506204141 63 0.0 0.0 0.00 0.00 0.00 99 1012.7
20260506203124 63 0.0 0.0 0.00 0.00 0.00 99 1012.8
20260506201910 63 0.0 0.0 0.00 0.00 0.00 99 1012.5
20260506200900 63 0.0 0.0 0.00 0.00 0.00 99 1012.5
20260506195848 63 0.0 0.0 0.00 0.00 0.00 99 1012.5
20260506194837 63 0.0 0.0 0.00 0.00 0.00 99 1012.3
20260506193731 63 0.0 0.0 0.00 0.00 0.00 99 1012.2
20260506192713 63 0.0 0.0 0.00 0.00 0.00 99 1012.2
20260506191702 63 0.0 0.0 0.00 0.00 0.00 99 1012.1
20260506190652 63 0.0 0.0 0.00 0.00 0.00 99 1012.1
20260506185641 63 0.0 0.0 0.00 0.00 0.00 99 1012.2
20260506184628 62 0.0 0.0 0.00 0.00 0.00 99 1012.2
20260506183515 63 0.0 0.0 0.00 0.00 0.00 99 1012.2
20260506182443 63 0.0 0.0 0.00 0.00 0.00 99 1012.1
20260506181432 63 0.0 0.0 0.00 0.00 0.00 99 1012.0
20260506180421 63 0.0 0.0 0.00 0.00 0.00 99 1012.0
20260506175208 63 0.0 0.0 0.00 0.00 0.00 99 1012.0
20260506174156 63 0.0 0.0 0.00 0.00 0.00 99 1011.9
20260506173152 63 0.0 0.0 0.00 0.00 0.00 99 1011.9
20260506171725 63 0.0 0.0 0.00 0.00 0.00 99 1012.0
20260506170715 63 0.0 0.0 0.00 0.00 0.00 99 1012.0
20260506165704 63 0.0 0.0 0.00 0.00 0.00 99 1012.0
20260506164652 63 0.0 0.0 0.00 0.00 0.00 99 1012.2
20260506163640 63 0.0 0.0 0.00 0.00 0.00 99 1012.1
20260506162634 63 0.0 0.0 0.00 0.00 0.00 99 1012.0
20260506161617 64 0.0 0.0 0.00 0.00 0.00 99 1012.0
20260506160602 64 0.0 0.0 0.00 0.00 0.00 99 1012.0
20260506155550 64 0.0 0.0 0.00 0.00 0.00 99 1012.0
20260506154539 64 0.0 0.0 0.00 0.00 0.00 99 1012.0
20260506153527 64 0.0 0.0 0.00 0.00 0.00 99 1012.0
20260506152521 64 0.0 0.0 0.00 0.00 0.00 99 1012.1
20260506151403 64 0.0 0.0 0.00 0.00 0.00 99 1012.2
20260506150141 64 0.0 0.0 0.00 0.00 0.00 99 1012.1
20260506145128 64 0.0 0.0 0.00 0.00 0.00 99 1012.1
20260506144117 65 0.0 0.0 0.00 0.00 0.00 99 1012.1
20260506143006 66 0.0 0.0 0.00 0.00 0.00 99 1012.1
20260506141959 65 0.0 0.0 0.00 0.00 0.00 99 1012.3